sat.trackr.live / text

‹ back to catalog

STARLINK-34124

NORAD 64109 · 2025-110P

PAYLOAD ACTIVE UNKNOWN

§ Identity

Operator
Country
US
Launch date
2025-05-23
Launch site
AFWTR
Launch vehicle
Mass (kg)
RCS (m²)

Purposes: comms

External: N2YO · Heavens-Above · Gunter

§ Orbital elements

Epoch: 2026-05-24T23:01:02.053056Z

Period
94.01 min
Inclination
53.1604°
Eccentricity
0.0000877
Mean motion
15.31718939 rev/d
Perigee alt
470.1 km
Apogee alt
471.3 km
Semi-major
6,848.8 km
B*
8.1557e-4
RAAN
32.2177°
Arg perigee
84.8803°
Mean anomaly
275.2298°
Rev number
5,756

§ Raw data

STARLINK-341241 64109U 25110P   26144.95905154  .00025043  00000+0  81557-3 0  99962 64109  53.1604  32.2177 0000877  84.8803 275.2298 15.31718939 57561

JSON: /api/v1/satellites/64109 · /tle

For live sub-satellite position, see the globe view (requires WebGL).

§ Visibility from observer

Set your observer location to see the next 7 days of passes ≥ 10°. The values pass through the URL so the page stays shareable.

No JS? Fill the form by hand. The geolocation button needs JavaScript.